Regional Weather Roundup
Issued by NWS Bismarck, ND

Home | Current Version | Previous Version | Text Only | Print | Product List | Glossary On
Versions: 1 2 3 4 5 6 7 8 9 10 11 12 13 14 15 16 17 18 19 20 21 22 23 24 25 26 27 28 29 30 31 32 33 34 35 36 37 38 39 40 41 42 43 44 45 46 47 48 49 50
000
ASUS43 KBIS 300702
RWRBIS

NWR BROADCAST TEXT
NATIONAL WEATHER SERVICE BISMARCK ND
200 AM CDT SAT APR 30 2016

NOTE: "FAIR" INDICATES FEW OR NO CLOUDS BELOW 12,000 FEET WITH NO
SIGNIFICANT WEATHER AND/OR OBSTRUCTIONS TO VISIBILITY.


CITY           SKY/WX    TMP DP  RH WIND       PRES   REMARKS
WILLISTON      CLEAR     38  28  67 N5        30.16R
MINOT          CLEAR     40  28  62 NW5       30.19R
MINOT AFB      NOT AVBL
BISMARCK       CLEAR     42  33  70 E12       30.14R
DICKINSON      CLEAR     36  29  75 E7        30.09S
GARRISON         N/A     44  29  55 E10       30.16R
HETTINGER ARPT MOCLDY    34  32  92 CALM      30.10S
JAMESTOWN      CLEAR     44  32  62 NE14      30.12S
CARRINGTON     FAIR      43  32  65 E10       30.18S
HAZEN          FAIR      36  32  87 NE5       30.17S
OAKES            N/A    N/A N/A N/A MISG        N/A
STANLEY        FAIR      41  28  60 E6        30.20S
$$

CITY           SKY/WX    TMP DP  RH WIND       PRES   REMARKS
GRAND FORKS    CLEAR     44  32  62 E9        30.19R
GRAND FORKS AF NOT AVBL
DEVILS LAKE    CLEAR     40  31  70 NE9       30.20R
FARGO          CLEAR     48  32  53 E12       30.14R
CAVALIER       FAIR      39  32  75 NW5       30.23R
GRAFTON        FAIR      39  32  75 NE8       30.23R
GWINNER        FAIR      43  37  81 SE3       30.12R
LANGDON        FAIR      39  28  65 NE9       30.23R
$$

CITY           SKY/WX    TMP DP  RH WIND       PRES   REMARKS
ABERDEEN       PTCLDY    40  37  89 N5        30.09F
MOBRIDGE       PTCLDY    39  36  89 N8        30.06S
BUFFALO          N/A     40  33  76 NE7       30.01S
RAPID CITY     CLOUDY    40  37  89 N6        30.04S
GLASGOW        CLOUDY    46  35  65 E8        30.12S
SIDNEY         CLEAR     45  30  57 NE7       30.14S
WOLF POINT     MOCLDY    43  34  70 NE9       30.14R
GLENDIVE       CLOUDY    46  36  66 NE9       30.13S
MILES CITY     CLOUDY    45  37  73 N6        30.08S
BAKER          PTCLDY    41  34  76 CALM      30.09R
$$

CITY           SKY/WX    TMP DP  RH WIND       PRES   REMARKS
BILLINGS       CLOUDY    41  37  86 NE7       30.03R
GREAT FALLS    CLOUDY    40  34  79 E7        30.02R
$$





USA.gov is the U.S. government's official web portal to all federal, state and local government web resources and services.